Regional Weather Roundup
Issued by NWS Northern Indiana

Home | Current Version | Previous Version | Graphics & Text | Print | Product List | Glossary On
Versions: 1 2 3 4 5 6 7 8 9 10 11 12 13 14 15 16 17 18 19 20 21 22 23 24 25 26 27 28 29 30 31 32 33 34 35 36 37 38 39 40 41 42 43 44 45 46 47 48 49 50
000
ASUS43 KIWX 121300
RWRIWX

KIWX WEATHER ROUNDUP
NATIONAL WEATHER SERVICE NORTHERN INDIANA
800 AM EST FRI FEB 12 2016

NOTE: "FAIR" INDICATES FEW OR NO CLOUDS BELOW 12,000 FEET WITH NO
SIGNIFICANT WEATHER AND/OR OBSTRUCTIONS TO VISIBILITY.

* THESE STATIONS ARE NOT UNDER NWS QUALITY CONTROL. THEY ALSO MAY NOT
  REPORT WEATHER SUCH AS PRECIPITATION OR FOG.

INZ001>027-121400-
NORTHERN INDIANA

CITY           SKY/WX    TMP DP  RH WIND       PRES   REMARKS
SOUTH BEND     CLOUDY    16   9  74 SW10      30.12F WCI   4
ELKHART*       CLOUDY    18   9  68 SW9       30.12F WCI   6
GOSHEN         CLOUDY    18   9  68 SW10      30.12F WCI   6
MONTICELLO*    CLOUDY    19   7  59 SW7       30.17S WCI  10
ANGOLA*        CLOUDY    16   9  73 SW8       30.08F WCI   5
FORT WAYNE     CLOUDY    18   9  68 SW7       30.15F WCI   9
PERU/GRISSOM   CLOUDY    19  13  77 W6        30.15R WCI  11

$$
INZ028>050-121400-
CENTRAL INDIANA

CITY           SKY/WX    TMP DP  RH WIND       PRES   REMARKS
LAFAYETTE      CLOUDY    19  12  74 W6        30.19R WCI  11
KOKOMO*        CLOUDY    19   9  63 SW6       30.16S WCI  11
MUNCIE*        CLOUDY    19   7  59 SW5       30.15F WCI  12
INDIANAPOLIS   CLOUDY    20  10  65 SW3       30.17R

$$
MIZ043>046-050>051-056>058-064>065-071>073-077>080-121400-
SOUTHWEST LOWER MICHIGAN

CITY           SKY/WX    TMP DP  RH WIND       PRES   REMARKS
BATTLE CREEK   CLOUDY    17   8  67 SW12      30.05F WCI   4
BENTON HARBOR  CLOUDY    23  12  62 W14       30.10F WCI  11
COLDWATER*     CLOUDY    17   8  67 SW9       30.08F WCI   6
HILLSDALE*     CLOUDY    16   6  65 SW7       30.05F WCI   6
HOLLAND        CLOUDY    23  10  57 W16G23    30.06F WCI  10
GRAND RAPIDS   CLOUDY    20  12  71 SW8       30.03F WCI  10
KALAMAZOO      CLOUDY    17   8  67 SW9       30.06F WCI   6
STURGIS*       CLOUDY    17   8  69 SW9       30.08F WCI   5
THREE RIVERS*  CLOUDY    17   9  70 SW7       30.09F WCI   8

$$
OHZ001>008-015>018-024>025-121400-
NORTHWEST OHIO

CITY           SKY/WX    TMP DP  RH WIND       PRES   REMARKS
DEFIANCE       CLOUDY    19   9  65 SW7       30.14F WCI  10
FINDLAY        CLOUDY    17  10  74 SW7       30.13F WCI   8
TOLEDO EXPRESS CLOUDY    16   7  67 SW8       30.12F WCI   5
TOLEDO METCALF   N/A     17   8  67 MISG      30.14F
LIMA           CLOUDY    17  10  74 SW7       30.13F WCI   8

$$
AND FOR LAKE MICHIGAN COASTAL AND OPEN LAKE BUOY OBSERVATIONS

STATION/POSITION TEMP    WIND        PRES    VSBY  WAVE
                 AIR SEA DIR/SP/G                  HT/PER
                 (F)     (DEG/KT/KT) (MB)    (MI)  (FT/S)
CALUMET HARBOR    20     230/  6/  9 1020.3F
MICHIGAN CITY     19     180/ 12/ 14   N/A
BURNS HARBOR      20     220/ 10/ 13 1021.7F
SAINT JOSEPH      25     230/ 16/ 21 1020.0F

$$
&&



USA.gov is the U.S. government's official web portal to all federal, state and local government web resources and services.